STARLINK-1779 (47123 NORAD) Tracking and Keplerian Element Data
This shows tracking and keplerian element data for the satellite.
Feedback or suggestion? Click here.
Element | Value |
Catalog | 47123 |
Name | STARLINK-1779 |
Epoch Orbit | 206 |
Epoch Day | 15.91667824 |
Epoch Year | 2021 |
RAAN | 101.4376 |
Inclination | 53.0567 |
Eccentricity | 0.0001632 |
Argument of Perigee | 51.0263 |
Mean Anonmoly | 93.1828 |
Mean Motion | 15.27974993 |
Decay Rate | -0.01066033 |
L1 | 1 47123U 20088B 21015.91667824 -.01066033 00000-0 -42039-1 0 9997 |
L2 | 2 47123 53.0567 101.4376 0001632 51.0263 93.1828 15.27974993 2061 |
Live tracking and technical data element details for STARLINK-1779 (NORAD 47123). STARLINK-1779 can be tracked NOW for your location showing map with azimuth and elevation plus other details from your city location.
Track the satellite on the map from your city or location and see movement details for azimuth, elevation, latitude, longitude, range, height, and movement on the map or in text.
IsCatalogInMostPopularTable: catalog: 47123, numindb: 12
Update: records affected: 1
GetName: 47123 STARLINK-1779
Hit Count: updated at: Sun, 17 Jan 2021 08:39:19 GMT